FW3587 Weather Reports


time (UTC)temp
C
wind
direction
speed
KPH
gust
KPH
rain 1hr
cm
rain 24hr
cm
rain mn
cm
humidity
%
barometer
mb
20260509224531 17 186 1.6 8.0 0.00 0.00 0.00 26 749.5
20260509223030 17 180 1.6 6.4 0.00 0.00 0.00 25 749.5
20260509221529 16 248 1.6 16.1 0.00 0.00 0.00 29 749.5
20260509220028 16 67 1.6 17.7 0.00 0.00 0.00 24 749.7
20260509214532 17 194 0.0 3.2 0.00 0.00 0.00 26 749.7
20260509213027 17 122 1.6 19.3 0.00 0.00 0.00 26 749.8
20260509211525 16 98 3.2 16.1 0.00 0.00 0.00 27 750.4
20260509210028 16 158 1.6 9.7 0.00 0.00 0.00 27 750.1
20260509204524 17 15 1.6 6.4 0.00 0.00 0.00 25 749.9
20260509203024 17 165 3.2 11.3 0.00 0.00 0.00 24 750.0
20260509201520 17 244 1.6 9.7 0.00 0.00 0.00 25 750.3
20260509200019 16 86 11.3 17.7 0.00 0.00 0.00 25 750.8
20260509194523 17 269 3.2 20.9 0.00 0.00 0.00 26 751.1
20260509193017 17 174 3.2 14.5 0.00 0.00 0.00 31 750.7
20260509191516 17 128 4.8 11.3 0.00 0.00 0.00 29 750.6
20260509190015 16 217 3.2 11.3 0.00 0.00 0.00 29 750.8
20260509184518 16 73 6.4 16.1 0.00 0.00 0.00 27 750.8
20260509183012 18 305 1.6 11.3 0.00 0.00 0.00 22 750.7
20260509181512 20 14 6.4 22.5 0.00 0.00 0.00 21 750.7
20260509180008 21 355 3.2 14.5 0.00 0.00 0.00 21 750.6
20260509174507 21 155 3.2 16.1 0.00 0.00 0.00 21 750.5
20260509173105 21 115 4.8 16.1 0.00 0.00 0.00 21 750.5
20260509171600 20 117 1.6 8.0 0.00 0.00 0.00 22 750.7
20260509164552 18 124 1.6 8.0 0.00 0.00 0.00 25 750.7
20260509163105 17 115 3.2 14.5 0.00 0.00 0.00 26 750.8
20260509161544 16 115 3.2 9.7 0.00 0.00 0.00 27 750.7
20260509160041 16 90 1.6 17.7 0.00 0.00 0.00 24 751.1
20260509154543 15 82 4.8 9.7 0.00 0.00 0.00 28 750.9
20260509153034 14 144 6.4 11.3 0.00 0.00 0.00 31 750.8
20260509151529 13 107 1.6 9.7 0.00 0.00 0.00 35 751.0
20260509150027 12 71 0.0 3.2 0.00 0.00 0.00 42 750.9
20260509144523 11 67 0.0 4.8 0.00 0.00 0.00 49 750.8
20260509143018 10 58 0.0 6.4 0.00 0.00 0.00 54 751.0
20260509141530 8 49 0.0 3.2 0.00 0.00 0.00 55 751.0
20260509140010 5 39 0.0 4.8 0.00 0.00 0.00 65 751.0
20260509134509 3 67 3.2 4.8 0.00 0.00 0.00 69 751.0
20260509133004 3 35 0.0 8.0 0.00 0.00 0.00 66 750.9
20260509131507 2 10 0.0 9.7 0.00 0.00 0.00 69 750.9
20260509130107 2 308 0.0 1.6 0.00 0.00 0.00 68 750.8
20260509124600 2 26 0.0 0.0 0.00 0.00 0.00 71 750.8
20260509123059 3 25 0.0 0.0 0.00 0.00 0.00 67 750.7
20260509121555 3 20 0.0 0.0 0.00 0.00 0.00 66 750.5
20260509120055 3 10 0.0 0.0 0.00 0.00 0.00 66 750.2
20260509114553 3 5 1.6 4.8 0.00 0.00 0.00 63 750.1
20260509113118 3 336 1.6 14.5 0.00 0.00 0.00 65 750.1
20260509111600 3 68 4.8 6.4 0.00 0.00 0.00 66 750.0
20260509110052 3 42 0.0 4.8 0.00 0.00 0.00 68 750.0
20260509104557 3 41 0.0 6.4 0.00 0.00 0.00 67 750.1
20260509103056 3 355 1.6 4.8 0.00 0.00 0.00 67 750.0
20260509101547 3 88 0.0 12.9 0.00 0.00 0.00 65 750.1
20260509100105 3 22 3.2 6.4 0.00 0.00 0.00 65 750.1
20260509094551 3 43 1.6 4.8 0.00 0.00 0.00 65 750.0
20260509093043 4 103 0.0 3.2 0.00 0.00 0.00 64 750.1
20260509091543 4 67 1.6 6.4 0.00 0.00 0.00 62 750.0
20260509090038 4 48 4.8 6.4 0.00 0.00 0.00 61 749.9
20260509084536 4 68 1.6 6.4 0.00 0.00 0.00 62 750.0
20260509083040 5 47 0.0 4.8 0.00 0.00 0.00 62 750.1
20260509081533 5 85 1.6 4.8 0.00 0.00 0.00 63 750.1
20260509080033 5 26 0.0 8.0 0.00 0.00 0.00 61 750.1
20260509074526 5 36 0.0 6.4 0.00 0.00 0.00 59 750.1
20260509073023 5 76 3.2 4.8 0.00 0.00 0.00 58 750.2
20260509071520 6 32 1.6 6.4 0.00 0.00 0.00 59 750.4
20260509070019 6 90 3.2 9.7 0.00 0.00 0.00 58 750.4
20260509064527 6 34 1.6 6.4 0.00 0.00 0.00 58 750.6
20260509063013 6 87 0.0 0.0 0.00 0.00 0.00 59 750.6
20260509061529 6 338 0.0 0.0 0.00 0.00 0.00 60 750.7
20260509060010 6 337 1.6 6.4 0.00 0.00 0.00 58 750.8
20260509054506 6 224 0.0 4.8 0.00 0.00 0.00 60 750.9
20260509053013 7 217 1.6 11.3 0.00 0.00 0.00 56 750.9
20260509051505 7 244 1.6 6.4 0.00 0.00 0.00 55 750.9
20260509050008 7 232 0.0 4.8 0.00 0.00 0.00 56 751.0
20260509044504 7 193 0.0 4.8 0.00 0.00 0.00 55 750.9
20260509043003 7 272 0.0 8.0 0.00 0.00 0.00 54 750.9
20260509041502 8 296 0.0 3.2 0.00 0.00 0.00 54 750.9
20260509040002 8 247 1.6 6.4 0.00 0.00 0.00 53 750.8
20260509034501 8 303 1.6 4.8 0.00 0.00 0.00 52 750.6
20260509033101 9 49 1.6 4.8 0.00 0.00 0.00 52 750.3
20260509031603 10 348 1.6 4.8 0.00 0.00 0.00 51 750.1
20260509024559 10 71 3.2 8.0 0.00 0.00 0.00 49 749.5
20260509023058 11 348 1.6 6.4 0.00 0.00 0.00 48 749.4
20260509021559 11 39 0.0 4.8 0.00 0.00 0.00 47 749.2
20260509020058 12 50 4.8 14.5 0.00 0.00 0.00 44 748.9
20260509014557 13 22 0.0 4.8 0.00 0.00 0.00 43 748.8
20260509013058 13 329 1.6 4.8 0.00 0.00 0.00 41 748.7
20260509011604 15 281 1.6 4.8 0.00 0.00 0.00 38 748.6
20260509010056 16 225 0.0 0.0 0.00 0.00 0.00 42 748.5
20260509004554 17 225 0.0 4.8 0.00 0.00 0.00 38 748.6
20260509003053 17 225 0.0 4.8 0.00 0.00 0.00 32 748.7
20260509001553 16 74 0.0 0.0 0.00 0.00 0.00 38 748.8
20260509000052 17 74 0.0 3.2 0.00 0.00 0.00 33 748.9
20260508234555 18 74 0.0 3.2 0.00 0.00 0.00 26 748.9
20260508233059 18 80 1.6 11.3 0.00 0.00 0.00 27 749.0
20260508231631 18 63 0.0 3.2 0.00 0.00 0.00 26 749.0
20260508230059 18 227 1.6 6.4 0.00 0.00 0.00 28 748.8